Miscellaneous Local Product
Issued by NWS Hastings, NE

Home | Current Version | Previous Version | Graphics & Text | Print | Product List | Glossary On
Versions: 1 2 3 4 5 6 7 8 9 10 11 12 13 14 15 16 17 18 19 20 21 22 23 24 25 26 27 28 29 30 31 32 33 34 35 36 37 38 39 40 41 42 43 44 45 46 47 48 49 50
470
AXUS43 KGID 181102
MISGRI

GID CWA HOURLY WEATHER ROUNDUP
NATIONAL WEATHER SERVICE HASTINGS NE
600 AM CDT FRI AUG 18 2017

NOTE: "FAIR" INDICATES FEW OR NO CLOUDS BELOW 12,000 FEET WITH NO
SIGNIFICANT WEATHER AND/OR OBSTRUCTIONS TO VISIBILITY.

...SOUTH CENTRAL NEBRASKA...

CITY           SKY/WX    TMP DP  RH WIND       PRES   REMARKS
GRAND ISLAND   PTCLDY    61  60  97 W7        29.94R
HASTINGS       CLOUDY    64  58  80 S5        29.95R
KEARNEY        PTCLDY    63  58  83 SW9       29.97R
ORD            CLEAR     59  55  87 CALM      29.93S
YORK           CLOUDY    63  61  94 SE7       29.90R
AURORA         PTCLDY    61  59  93 CALM      29.92R
LEXINGTON      CLEAR     61  57  88 S3        29.99S
HOLDREGE       CLEAR     62  56  83 S7        29.98S
HEBRON         CLOUDY    66  61  84 CALM      29.95F

...NEBRASKA PANHANDLE...

CITY           SKY/WX    TMP DP  RH WIND       PRES   REMARKS
CHADRON        CLEAR     51  47  86 W7        30.06R
ALLIANCE       CLEAR     47  46  97 MISG      30.08S
SCOTTSBLUFF    CLEAR     53  49  86 NW7       30.11R
SIDNEY         CLOUDY    51  49  92 NW7       30.11S

...WESTERN AND NORTH CENTRAL NEBRASKA...

CITY           SKY/WX    TMP DP  RH WIND       PRES   REMARKS
VALENTINE      CLEAR     58  51  78 SW7       29.96S
ONEILL         CLEAR     57  57 100 NW5       29.95S
BROKEN BOW     CLEAR     60  56  86 CALM      29.98R
IMPERIAL       CLEAR     55  53  93 E7        30.01F
NORTH PLATTE   CLEAR     56  54  93 CALM      30.00R
MCCOOK         CLEAR     61  58  90 E3        30.02R

...EASTERN NEBRASKA...

CITY           SKY/WX    TMP DP  RH WIND       PRES   REMARKS
NORFOLK        CLEAR     60  58  92 N8        29.90R
SO SIOUX CITY  CLOUDY    63  63 100 CALM      29.86S
TEKAMAH        CLOUDY    67  59  75 SW9       29.82F
COLUMBUS       PTCLDY    62  61  96 S6        29.88F
ALBION         CLEAR     59  58  96 N3        29.92R
OMAHA EPPLEY   CLOUDY    68  62  81 SE12      29.87F
OFFUTT AFB     PTCLDY    64  61  91 SE3       29.88F
MILLARD        PTCLDY    67  64  89 SE10      29.86F
LINCOLN        CLOUDY    67  61  81 S15       29.87F
NEBRASKA CITY  MOCLDY    65  64  97 NW5       29.94S
BEATRICE       CLOUDY    65  62  87 CALM      29.97S
FALLS CITY     CLOUDY    65  59  81 SW3       29.93R

...NORTHERN KANSAS...

CITY           SKY/WX    TMP DP  RH WIND       PRES   REMARKS
GOODLAND       CLOUDY    60  55  83 SW13      30.03S
HILL CITY      CLOUDY    64  59  83 VRB5      30.01R
NORTON         SUNNY     57  52  82 CALM      30.00F
PHILLIPSBURG   CLEAR     64  57  77 CALM      29.99F
SMITH CENTER   MOCLDY    61  59  94 W5        29.99S
HAYS           CLOUDY    63  59  87 SW10      29.98R
RUSSELL        CLOUDY    66  61  84 N13       29.97R
CONCORDIA      CLEAR     65  61  87 N5        29.95S
SALINA         CLOUDY    69  62  78 NW9       29.95R
TOPEKA         PTCLDY    64  61  90 CALM      29.94R



USA.gov is the U.S. government's official web portal to all federal, state and local government web resources and services.